TIANWANG 1B (TW-1B)
1 40927U 15051C   19212.36060523  .00006532  00000-0  99775-4 0  9991
2 40927  97.1359 257.7742 0007128 213.6978 275.0183 15.54737674216640
TIANWANG 1A (TW-1A)
1 40928U 15051D   19212.36047922  .00001681  00000-0  42788-4 0  9992
2 40928  97.1434 242.7180 0009335 281.4763 200.1106 15.40946987215740
LAPAN A2
1 40931U 15052B   19212.44157586  .00000877  00000-0  33101-4 0  9999
2 40931   6.0065 111.7571 0013279  35.8454 324.2911 14.76614011207596
LQSAT
1 40958U 15057A   19211.74588804 -.00000018 +00000-0 +48455-5 0  9993
2 40958 097.8965 279.8019 0019598 105.5172 254.8202 14.73084750204997
CHUBUSAT 2
1 41338U 16012B   19211.47732699 +.00000196 +00000-0 +84696-5 0  9994
2 41338 031.0021 239.2174 0013741 157.1586 202.9662 15.00161738189192
CHUBUSAT 3
1 41339U 16012C   19212.37334055  .00000186  00000-0  76654-5 0  9993
2 41339  31.0103 231.5640 0013586 173.8209 186.2595 15.00336910189321
OUFTI-1
1 41458U 16025C   19211.71757743 +.00001107 +00000-0 +60516-4 0  9992
2 41458 098.1026 300.7001 0165628 215.3673 143.6478 15.05871097178895
E-STAR-2
1 41459U 16025D   19212.47514864  .00000103  00000-0  99772-5 0  9994
2 41459  98.1005 301.1339 0166932 214.3537 144.6833 15.05497256178986
AAUSAT 4
1 41460U 16025E   19212.19827165  .00001730  00000-0  90383-4 0  9991
2 41460  98.0964 302.1894 0157385 207.4645 151.8275 15.07408014179070
NUSAT 1
1 41557U 16033B   19212.43546862  .00000901  00000-0  36418-4 0  9994
2 41557  97.4180 299.6883 0014888 141.7344 218.4955 15.27274795176615
BEESAT 4
1 41619U 16040W   19211.75710812 +.00000747 +00000-0 +34515-4 0  9997
2 41619 097.3649 273.1927 0009982 229.9712 130.0650 15.23191589160266
PRATHAM
1 41783U 16059A   19211.72979525  .00000015  00000-0  12231-4 0  9993
2 41783  98.0646 270.3774 0032259 251.0153 108.7553 14.63001291151694
ALSAT 1N
1 41789U 16059G   19211.88762815 +.00000018 +00000-0 +12577-4 0  9994
2 41789 098.0674 272.6180 0027181 239.7595 120.0902 14.64251947151824
NAYIF 1
1 42017U 17008BX  19211.74188464 +.00000838 +00000-0 +35824-4 0  9991
2 42017 097.4008 278.3991 0007001 035.3571 324.8130 15.25600171136330
MAX VALIER SAT
1 42778U 17036P   19212.13055530  .00000578  00000-0  28231-4 0  9992
2 42778  97.3515 268.8564 0014122  77.7719 282.5098 15.22062485116699
